Wind_Speed
5 5 5 5 5 6 6 6 7 7 7 7 6 6 6 6 6 5 5 4 4 3 3 3 2 1 1 1 0 1 1 1 1 2 2 3 3 2 2 2 2 3 3
5 5 5 5 6 6 6 6 6 6 6 6 6 6 6 6 5 5 4 4 3 3 2 1 1 0 0 0 1 2 1 1 2 2 3 3 3 3 3 3 3 3 3
5 5 4 5 6 6 6 5 5 5 5 5 5 5 5 5 5 5 5 4 3 2 1 1 0 1 1 1 2 2 2 3 2 2 3 3 3 3 3 4 4 3 3
5 5 5 6 6 6 5 5 5 5 4 4 4 4 4 4 5 5 4 4 3 2 1 1 1 2 2 3 4 3 3 3 2 2 3 3 3 3 4 4 4 4 4
5 6 5 6 6 6 5 5 5 4 4 4 3 4 4 3 4 5 3 3 3 2 2 2 2 2 2 3 3 4 3 4 3 4 4 4 3 3 3 4 4 4 4
5 5 5 6 6 5 5 4 4 4 4 4 4 4 4 4 4 4 3 3 2 2 2 1 1 1 2 2 3 3 3 4 4 4 4 4 4 4 4 5 4 5 5
4 4 5 5 5 5 4 4 4 3 3 3 3 3 4 4 4 3 3 2 1 1 1 0 1 1 1 2 2 2 3 3 4 5 5 5 5 6 5 6 6 6 6
5 4 4 4 4 4 4 4 3 3 3 3 3 3 3 3 3 2 1 1 1 1 0 1 1 2 2 2 2 3 3 4 4 5 6 6 6 6 6 6 6 6 6
5 5 4 4 4 4 4 3 3 3 3 3 2 2 2 2 2 1 0 1 2 2 1 2 2 3 3 4 4 4 4 5 6 6 6 6 7 6 7 7 7 7 7
5 5 5 4 4 4 4 4 3 2 2 2 2 1 1 1 1 1 1 1 1 2 2 3 4 4 5 5 6 6 6 6 7 8 8 8 8 7 7 7 7 7 7
5 5 4 4 3 3 3 3 2 2 1 1 1 1 0 1 1 0 1 1 2 2 3 4 5 5 6 6 6 7 7 7 8 9 9 9 9 8 8 7 7 7 8
5 5 4 4 4 3 3 3 3 2 1 1 1 1 1 1 1 1 2 3 3 3 4 4 5 6 7 6 7 8 8 8 7 8 8 9 8 9 8 8 8 8 8
4 4 4 4 4 3 3 3 2 2 2 2 1 2 2 3 3 3 3 4 4 4 4 5 5 6 7 7 8 8 8 7 8 8 8 8 8 8 8 8 7 7 8
4 4 4 3 3 3 3 3 3 3 2 2 3 3 3 4 4 4 4 4 4 5 5 5 6 6 7 7 8 9 8 7 8 9 9 8 8 7 8 8 7 7 8
3 4 5 5 4 4 4 4 3 3 3 3 4 4 4 4 4 4 4 4 5 6 6 6 6 6 7 8 9 9 9 8 9 9 9 8 8 8 8 8 7 8 8
4 4 5 5 5 5 5 4 4 4 4 5 4 4 5 5 5 5 5 5 5 6 6 6 6 7 7 8 9 9 10 10 9 9 9 9 9 9 9 9 9 9 9
5 5 5 5 5 5 6 5 5 5 4 5 5 5 5 6 6 6 6 6 6 6 6 7 7 8 8 9 9 10 11 10 9 9 9 9 9 10 9 10 10 10 10
6 6 6 6 6 6 7 6 5 5 5 6 5 5 6 7 7 7 7 7 6 6 7 7 7 8 9 9 10 10 11 10 10 10 10 10 10 10 11 10 11 11 11
6 7 7 7 6 6 6 6 6 6 6 6 6 6 7 7 7 7 7 8 8 7 7 8 8 9 9 10 10 10 11 11 11 11 11 11 11 12 12 11 12 12 13
7 7 7 7 6 6 6 7 7 7 7 7 7 7 8 8 8 8 8 9 8 8 8 8 9 10 10 10 10 11 12 12 12 12 13 13 13 13 13 13 13 14 15
7 8 7 7 7 7 7 7 8 9 8 9 8 8 9 10 10 10 10 10 10 10 10 10 10 10 10 11 11 12 12 13 13 13 14 14 14 14 14 15 15 15 16
7 8 8 7 7 7 8 9 10 10 10 11 11 10 11 12 12 11 11 11 11 11 11 11 11 10 11 12 13 13 13 13 14 15 15 15 16 16 16 17 18 18 18
8 8 8 8 7 8 8 9 10 11 11 12 12 12 12 12 13 13 12 11 12 12 12 12 12 13 14 14 14 14 14 14 14 16 17 17 17 17 18 18 19 20 20
9 9 9 8 8 8 9 9 11 12 13 13 13 14 14 14 14 13 12 12 12 13 13 13 13 14 14 15 15 15 15 16 16 16 17 17 18 19 19 19 20 21 20
10 10 10 10 9 9 9 10 11 13 13 13 14 15 14 14 14 13 13 13 14 14 14 14 14 14 15 16 16 17 18 18 18 19 18 18 19 19 19 19 20 20 20
11 11 11 11 11 11 10 11 12 13 14 14 15 15 16 15 14 13 14 15 15 15 15 15 15 16 16 17 18 19 20 20 21 20 19 20 20 20 20 19 20 20 21
Wind_Direction
86 95 103 110 118 119 116 109 109 113 115 123 130 142 152 156 157 160 161 160 156 157 155 143 131 149 156 171 203 302 332 309 263 274 296 282 270 283 293 287 283 276 270
84 91 97 106 115 112 111 113 112 115 117 119 125 131 145 148 152 160 158 153 154 156 159 149 135 45 20 351 327 317 316 323 305 297 302 301 285 280 292 294 285 277 268
85 86 91 104 110 114 113 112 114 113 119 117 118 127 138 147 151 155 146 141 142 145 159 169 75 46 41 18 359 342 320 317 299 303 307 299 292 286 284 288 287 280 274
89 92 99 109 113 116 113 105 102 105 113 112 114 123 132 143 152 153 150 144 138 136 119 84 51 46 32 36 33 16 347 331 312 302 306 314 305 292 283 287 286 272 272
93 96 103 112 113 113 109 103 100 105 110 109 113 118 125 136 142 142 140 141 135 122 108 79 50 24 30 36 25 23 12 357 344 335 320 312 312 308 307 298 288 280 283
92 95 99 106 109 111 106 103 99 103 108 109 115 115 118 131 133 127 121 124 132 120 107 93 45 11 12 14 11 10 2 360 351 339 343 331 319 317 305 304 299 284 284
87 92 97 101 106 107 102 102 98 98 99 105 109 115 122 125 132 125 114 109 103 125 146 143 339 347 2 1 359 347 338 343 343 337 334 329 316 307 298 293 296 294 281
84 83 85 95 101 97 92 90 95 96 101 100 101 112 119 132 130 122 109 87 60 49 230 259 293 308 308 325 335 328 319 322 322 323 322 322 318 314 310 302 296 294 286
80 80 84 93 98 93 87 88 88 86 92 99 99 110 121 138 142 141 129 28 40 28 339 306 300 305 305 304 311 313 313 318 317 318 316 314 313 310 305 297 291 293 297
78 82 84 88 93 88 81 81 88 94 97 92 92 108 125 172 180 176 313 347 346 345 337 323 315 313 316 312 309 308 312 313 313 319 314 312 312 309 311 299 291 295 297
74 79 79 74 80 79 62 62 65 109 125 98 89 91 110 244 241 287 321 339 326 326 324 323 323 322 320 319 322 319 314 317 326 323 317 313 317 315 309 301 288 295 299
68 68 67 66 63 57 41 39 44 82 86 73 75 30 353 312 314 313 315 321 321 321 323 326 325 321 319 318 322 320 319 319 326 328 327 319 315 315 313 307 301 303 302
55 53 50 50 45 38 26 24 47 59 50 41 18 351 337 330 329 328 322 311 311 316 318 323 321 321 315 316 318 320 321 320 326 327 331 327 323 319 314 311 310 305 301
40 40 29 29 16 15 17 18 27 38 24 7 356 349 338 340 331 326 326 321 316 315 319 324 322 318 321 319 315 316 321 322 329 327 327 327 325 320 314 308 303 302 302
40 36 28 18 17 20 23 21 17 13 5 1 0 349 341 338 333 331 327 322 320 319 316 316 317 319 323 320 318 321 323 322 325 323 322 319 317 314 313 310 303 304 307
28 28 24 18 21 21 17 20 12 9 8 3 356 350 347 341 334 331 327 322 319 320 320 318 312 317 322 319 315 322 326 321 320 323 322 320 317 316 314 311 309 311 310
27 17 17 14 14 12 9 4 358 355 0 355 350 347 344 337 332 331 326 324 324 326 326 325 320 317 321 325 325 324 325 320 319 322 325 323 321 317 314 312 311 311 313
17 14 14 12 8 8 5 1 359 353 350 346 341 343 341 331 324 321 316 315 314 322 321 319 320 319 320 322 323 326 328 324 319 320 320 318 316 315 315 313 311 311 311
11 8 6 4 359 354 352 351 347 343 338 336 335 333 333 329 321 318 314 314 311 312 313 312 312 315 315 319 322 325 325 321 318 317 315 317 314 312 311 309 307 309 310
0 354 351 351 347 341 339 339 339 340 337 334 332 330 331 327 321 318 315 315 311 309 310 313 314 311 310 316 321 322 322 320 317 312 312 314 311 311 308 306 305 306 306
352 348 343 342 338 341 343 342 339 340 337 335 332 327 327 324 318 315 312 314 311 307 307 309 314 314 313 315 317 319 320 318 316 311 310 311 308 306 305 302 302 304 305
344 345 343 336 338 337 337 337 335 336 336 334 328 321 322 322 318 314 311 308 309 309 307 304 310 314 314 316 316 316 318 318 317 313 309 307 306 303 302 301 302 303 303
342 340 338 333 330 327 329 330 331 331 332 331 327 321 319 319 316 312 310 308 308 308 308 307 309 312 312 313 315 314 314 316 315 313 309 305 303 302 301 300 301 301 302
341 340 334 329 327 326 324 325 326 326 327 328 327 324 318 314 313 314 311 308 304 304 306 305 305 307 310 313 313 315 315 313 313 312 311 307 302 301 300 300 300 299 300
329 331 330 328 323 321 322 323 324 324 324 325 326 325 322 321 314 311 311 311 306 301 299 299 301 303 307 311 313 314 315 316 314 312 310 309 303 301 301 302 302 301 299
321 323 323 325 322 318 318 319 322 324 323 323 322 323 324 325 323 318 314 311 308 301 297 298 298 300 304 307 309 310 312 313 314 315 312 312 307 303 302 302 302 301 300
Height
5882 5881 5881 5881 5881 5882 5882 5882 5882 5882 5883 5883 5884 5885 5886 5887 5888 5889 5890 5890 5891 5891 5892 5892 5893 5893 5893 5893 5893 5893 5893 5892 5892 5893 5893 5893 5893 5893 5893 5893 5894 5894 5894
5883 5883 5883 5883 5883 5883 5884 5884 5884 5884 5885 5885 5886 5886 5887 5888 5889 5890 5891 5891 5892 5892 5893 5893 5893 5893 5893 5893 5893 5893 5893 5892 5892 5892 5892 5892 5892 5892 5893 5893 5893 5894 5894
5885 5884 5884 5884 5885 5885 5885 5885 5886 5886 5886 5887 5887 5888 5889 5889 5890 5890 5891 5892 5893 5893 5894 5894 5894 5894 5894 5894 5893 5893 5892 5891 5891 5891 5891 5891 5892 5892 5892 5893 5893 5893 5894
5886 5886 5886 5886 5886 5887 5887 5887 5887 5887 5888 5888 5888 5889 5890 5890 5891 5891 5892 5893 5893 5894 5894 5894 5894 5895 5894 5894 5894 5893 5892 5892 5892 5891 5891 5891 5891 5892 5892 5892 5893 5893 5893
5887 5887 5887 5887 5887 5888 5888 5888 5889 5889 5889 5889 5890 5890 5890 5891 5891 5892 5893 5893 5894 5894 5894 5895 5895 5895 5895 5894 5894 5893 5893 5892 5892 5892 5891 5891 5891 5891 5891 5891 5892 5892 5892
5889 5888 5888 5889 5889 5889 5890 5890 5890 5890 5890 5891 5891 5891 5891 5892 5892 5893 5894 5894 5894 5894 5895 5895 5895 5895 5895 5894 5894 5893 5893 5893 5892 5892 5891 5891 5891 5891 5891 5891 5891 5891 5891
5890 5890 5890 5890 5890 5891 5891 5891 5891 5892 5892 5892 5892 5893 5893 5893 5894 5894 5894 5895 5895 5895 5895 5895 5895 5895 5895 5895 5894 5894 5893 5893 5893 5892 5892 5891 5891 5890 5890 5890 5890 5890 5890
5892 5891 5891 5892 5892 5892 5892 5892 5892 5893 5893 5893 5893 5894 5894 5894 5895 5895 5895 5895 5895 5895 5895 5895 5895 5895 5895 5895 5894 5894 5893 5893 5893 5892 5891 5891 5890 5889 5889 5889 5889 5890 5889
5893 5893 5893 5893 5893 5893 5893 5893 5894 5894 5894 5894 5894 5895 5895 5895 5895 5896 5896 5896 5896 5895 5896 5896 5896 5895 5895 5894 5894 5894 5893 5893 5892 5892 5891 5890 5890 5889 5889 5888 5889 5889 5889
5894 5894 5895 5895 5895 5895 5895 5894 5895 5895 5895 5895 5895 5896 5896 5896 5896 5896 5896 5896 5896 5896 5896 5896 5896 5895 5895 5894 5894 5893 5893 5892 5892 5891 5890 5890 5889 5888 5888 5887 5887 5888 5888
5896 5896 5896 5896 5896 5896 5896 5896 5896 5895 5896 5896 5896 5896 5896 5896 5896 5896 5896 5896 5896 5896 5896 5896 5895 5895 5895 5894 5893 5892 5892 5891 5890 5890 5889 5889 5888 5887 5887 5887 5886 5887 5886
5898 5898 5898 5898 5898 5897 5897 5897 5896 5896 5896 5897 5897 5897 5897 5897 5897 5896 5896 5896 5896 5896 5895 5895 5895 5895 5894 5893 5892 5892 5891 5890 5890 5889 5888 5887 5887 5886 5886 5886 5886 5886 5885
5900 5899 5899 5899 5899 5898 5898 5898 5898 5898 5898 5898 5897 5897 5897 5897 5897 5896 5896 5896 5895 5895 5895 5895 5894 5894 5893 5892 5892 5891 5890 5889 5889 5888 5887 5886 5886 5885 5885 5885 5884 5884 5884
5901 5901 5900 5900 5900 5899 5899 5899 5899 5899 5898 5898 5898 5897 5897 5897 5896 5896 5895 5895 5895 5895 5894 5894 5893 5893 5892 5891 5891 5890 5889 5888 5888 5887 5886 5885 5885 5884 5884 5883 5883 5883 5882
5902 5902 5901 5901 5900 5900 5899 5899 5899 5899 5899 5898 5898 5897 5897 5896 5896 5895 5895 5894 5894 5894 5894 5893 5892 5892 5891 5890 5889 5889 5888 5887 5886 5885 5884 5884 5883 5883 5882 5882 5881 5881 5880
5903 5903 5902 5901 5901 5901 5900 5900 5900 5900 5899 5899 5898 5897 5896 5896 5895 5895 5894 5893 5893 5893 5892 5892 5891 5891 5890 5889 5888 5887 5887 5886 5885 5884 5883 5882 5882 5881 5881 5880 5880 5879 5879
5904 5903 5903 5902 5902 5901 5901 5900 5900 5900 5899 5899 5898 5897 5896 5895 5894 5894 5893 5893 5892 5892 5891 5891 5890 5890 5889 5888 5887 5886 5886 5884 5883 5882 5881 5880 5880 5879 5879 5878 5878 5877 5877
5904 5904 5903 5903 5902 5902 5902 5901 5900 5900 5899 5898 5898 5897 5896 5895 5894 5893 5892 5892 5891 5890 5890 5890 5889 5889 5888 5887 5886 5885 5884 5883 5882 5881 5880 5879 5878 5878 5877 5877 5876 5875 5875
5905 5905 5904 5904 5903 5903 5902 5901 5901 5900 5899 5898 5897 5896 5895 5894 5893 5892 5891 5891 5890 5889 5889 5889 5888 5887 5887 5886 5885 5884 5882 5881 5880 5879 5878 5877 5876 5875 5875 5874 5874 5873 5872
5906 5905 5905 5904 5903 5903 5902 5901 5901 5900 5899 5897 5896 5896 5895 5893 5892 5891 5890 5889 5889 5888 5888 5887 5887 5886 5885 5884 5883 5882 5881 5879 5879 5877 5876 5875 5874 5873 5872 5871 5871 5870 5869
5906 5906 5905 5904 5903 5903 5902 5901 5900 5899 5898 5897 5896 5895 5894 5892 5891 5890 5889 5888 5887 5887 5887 5886 5885 5884 5883 5882 5881 5880 5879 5878 5876 5875 5874 5872 5871 5870 5869 5868 5867 5867 5865
5906 5905 5904 5904 5903 5902 5902 5901 5900 5899 5898 5897 5895 5894 5893 5891 5890 5888 5887 5887 5886 5886 5885 5884 5883 5882 5881 5880 5879 5878 5877 5876 5874 5872 5871 5870 5868 5867 5866 5864 5863 5862 5861
5906 5905 5904 5903 5902 5902 5901 5900 5899 5898 5897 5896 5894 5893 5891 5890 5888 5887 5886 5885 5884 5883 5883 5882 5881 5880 5879 5878 5876 5875 5874 5873 5871 5870 5868 5866 5865 5863 5862 5861 5859 5858 5857
5906 5905 5904 5903 5902 5901 5900 5899 5898 5897 5896 5894 5892 5891 5889 5888 5886 5885 5884 5883 5882 5881 5881 5880 5879 5878 5877 5875 5874 5872 5871 5870 5868 5867 5865 5863 5861 5859 5858 5856 5855 5853 5852
5906 5905 5903 5902 5901 5900 5899 5898 5897 5896 5894 5892 5890 5889 5887 5886 5885 5884 5882 5881 5880 5879 5878 5877 5876 5875 5874 5873 5871 5869 5868 5866 5864 5862 5861 5859 5857 5854 5853 5852 5850 5848 5847
5905 5904 5903 5901 5900 5899 5898 5897 5896 5894 5893 5891 5889 5887 5886 5884 5883 5882 5880 5879 5877 5876 5875 5874 5873 5872 5871 5869 5868 5866 5864 5862 5860 5858 5856 5854 5852 5850 5848 5846 5845 5843 5842